When you browse on this site, cookies collect data to enhance your experience and personalize the content and advertising you see.
Visit our Privacy Policy to learn more. By continuing to use the site, you agree to this use of cookies and data.
  • In Austria
  • List of Countries
  • For 7 days
  • Water Temperature
  • Weather Map
  • News
  • Weather Widgets
  • user-avatar
    Login

    Hourly Weather Mamuty

    Today, 29 May, Friday

    Time Temperature Precipitation Wind Pressure Humidity
    00:00 +12°C° 0 mm 2 mps 750 mmHg 79%
    01:00 +12°C° 0 mm 2 mps 749 mmHg 81%
    02:00 +10°C° 0 mm 3 mps 749 mmHg 84%
    03:00 +10°C° 0.1 mm 3 mps 749 mmHg 86%
    04:00 +10°C° 0.1 mm 3 mps 748 mmHg 89%
    05:00 +10°C° 0.1 mm 3 mps 748 mmHg 91%
    06:00 +10°C° 0.4 mm 3 mps 748 mmHg 92%
    07:00 +11°C° 0.4 mm 4 mps 748 mmHg 93%
    08:00 +11°C° 0.4 mm 4 mps 748 mmHg 94%
    09:00 +11°C° 0.5 mm 4 mps 748 mmHg 94%
    10:00 +11°C° 0.5 mm 4 mps 747 mmHg 94%
    11:00 +11°C° 0.5 mm 4 mps 747 mmHg 94%
    12:00 +12°C° 0.2 mm 4 mps 747 mmHg 94%
    13:00 +12°C° 0.2 mm 5 mps 747 mmHg 93%
    14:00 +12°C° 0.2 mm 5 mps 747 mmHg 92%
    15:00 +13°C° 0 mm 5 mps 747 mmHg 90%
    16:00 +13°C° 0 mm 5 mps 746 mmHg 88%
    17:00 +14°C° 0 mm 5 mps 746 mmHg 86%
    18:00 +13°C° 0 mm 5 mps 746 mmHg 85%
    19:00 +13°C° 0 mm 5 mps 746 mmHg 85%
    20:00 +13°C° 0 mm 4 mps 746 mmHg 84%
    21:00 +13°C° 0 mm 4 mps 746 mmHg 86%
    22:00 +12°C° 0 mm 4 mps 746 mmHg 87%
    23:00 +12°C° 0 mm 4 mps 746 mmHg 89%

    Tomorrow, 30 May, Saturday

    Time Temperature Precipitation Wind Pressure Humidity
    00:00 +12°C° 0 mm 4 mps 745 mmHg 88%
    01:00 +12°C° 0 mm 5 mps 745 mmHg 87%
    02:00 +12°C° 0 mm 5 mps 745 mmHg 87%
    03:00 +12°C° 0 mm 5 mps 745 mmHg 87%
    04:00 +12°C° 0 mm 5 mps 745 mmHg 88%
    05:00 +13°C° 0 mm 5 mps 745 mmHg 88%
    06:00 +13°C° 0 mm 5 mps 745 mmHg 87%
    07:00 +13°C° 0 mm 5 mps 745 mmHg 86%
    08:00 +14°C° 0 mm 5 mps 745 mmHg 85%
    09:00 +14°C° 0 mm 6 mps 745 mmHg 82%
    10:00 +15°C° 0 mm 6 mps 745 mmHg 79%
    11:00 +16°C° 0 mm 6 mps 745 mmHg 76%
    12:00 +16°C° 0.4 mm 6 mps 745 mmHg 79%
    13:00 +15°C° 0.4 mm 6 mps 744 mmHg 82%
    14:00 +15°C° 0.4 mm 6 mps 744 mmHg 85%
    15:00 +15°C° 0.1 mm 6 mps 744 mmHg 84%
    16:00 +15°C° 0.1 mm 6 mps 744 mmHg 83%
    17:00 +15°C° 0.1 mm 6 mps 743 mmHg 82%
    18:00 +15°C° 0 mm 6 mps 743 mmHg 80%
    19:00 +15°C° 0 mm 7 mps 743 mmHg 79%
    20:00 +16°C° 0 mm 7 mps 743 mmHg 77%
    21:00 +15°C° 0 mm 7 mps 743 mmHg 76%
    22:00 +15°C° 0 mm 7 mps 743 mmHg 75%
    23:00 +15°C° 0 mm 7 mps 743 mmHg 75%

    Day after tomorrow, 31 May, Sunday

    Time Temperature Precipitation Wind Pressure Humidity
    00:00 +15°C° 0 mm 7 mps 743 mmHg 74%
    01:00 +15°C° 0 mm 7 mps 743 mmHg 74%
    02:00 +15°C° 0 mm 7 mps 744 mmHg 74%
    03:00 +14°C° 0 mm 7 mps 744 mmHg 73%
    04:00 +14°C° 0 mm 6 mps 744 mmHg 72%
    05:00 +13°C° 0 mm 6 mps 744 mmHg 71%
    06:00 +14°C° 0 mm 6 mps 745 mmHg 68%
    07:00 +14°C° 0 mm 7 mps 745 mmHg 64%
    08:00 +15°C° 0 mm 7 mps 746 mmHg 60%
    09:00 +16°C° 0 mm 7 mps 746 mmHg 56%
    10:00 +17°C° 0 mm 7 mps 746 mmHg 52%
    11:00 +18°C° 0 mm 7 mps 747 mmHg 48%
    12:00 +20°C° 0 mm 7 mps 747 mmHg 46%
    13:00 +20°C° 0 mm 7 mps 747 mmHg 43%
    14:00 +21°C° 0 mm 6 mps 747 mmHg 41%
    15:00 +21°C° 0 mm 6 mps 748 mmHg 44%
    16:00 +20°C° 0 mm 5 mps 748 mmHg 46%
    17:00 +20°C° 0 mm 5 mps 748 mmHg 49%
    18:00 +19°C° 0 mm 4 mps 749 mmHg 54%
    19:00 +17°C° 0 mm 4 mps 749 mmHg 58%
    20:00 +16°C° 0 mm 3 mps 749 mmHg 63%
    21:00 +14°C° 0 mm 3 mps 750 mmHg 66%
    22:00 +13°C° 0 mm 3 mps 750 mmHg 68%
    23:00 +12°C° 0 mm 3 mps 751 mmHg 70%

    1 June, Monday

    Time Temperature Precipitation Wind Pressure Humidity
    00:00 +11°C° 0 mm 3 mps 751 mmHg 71%
    01:00 +10°C° 0 mm 3 mps 752 mmHg 71%
    02:00 +9°C° 0 mm 3 mps 752 mmHg 71%
    03:00 +9°C° 0 mm 3 mps 752 mmHg 72%
    04:00 +8°C° 0 mm 3 mps 752 mmHg 73%
    05:00 +8°C° 0 mm 3 mps 753 mmHg 74%
    06:00 +10°C° 0 mm 3 mps 753 mmHg 67%
    07:00 +12°C° 0 mm 3 mps 753 mmHg 60%
    08:00 +13°C° 0 mm 3 mps 753 mmHg 53%
    09:00 +16°C° 0 mm 3 mps 753 mmHg 52%
    10:00 +17°C° 0 mm 3 mps 753 mmHg 50%
    11:00 +18°C° 0 mm 4 mps 753 mmHg 49%
    12:00 +18°C° 0 mm 4 mps 753 mmHg 51%
    13:00 +18°C° 0 mm 4 mps 752 mmHg 53%
    14:00 +19°C° 0 mm 4 mps 752 mmHg 55%
    15:00 +18°C° 0.1 mm 3 mps 752 mmHg 58%
    16:00 +18°C° 0.1 mm 3 mps 752 mmHg 61%
    17:00 +18°C° 0.1 mm 3 mps 751 mmHg 64%
    18:00 +17°C° 0 mm 2 mps 751 mmHg 71%
    19:00 +16°C° 0 mm 2 mps 751 mmHg 77%
    20:00 +14°C° 0 mm 1 mps 751 mmHg 84%
    21:00 +13°C° 0 mm 2 mps 751 mmHg 87%
    22:00 +12°C° 0 mm 2 mps 751 mmHg 91%
    23:00 +10°C° 0 mm 2 mps 751 mmHg 94%

    2 June, Tuesday

    Time Temperature Precipitation Wind Pressure Humidity
    00:00 +10°C° 0 mm 2 mps 751 mmHg 95%
    01:00 +10°C° 0 mm 2 mps 751 mmHg 96%
    02:00 +9°C° 0 mm 2 mps 751 mmHg 96%
    03:00 +10°C° 0 mm 2 mps 751 mmHg 95%
    04:00 +10°C° 0 mm 2 mps 750 mmHg 94%
    05:00 +10°C° 0 mm 2 mps 750 mmHg 93%
    06:00 +12°C° 0.1 mm 2 mps 750 mmHg 91%
    07:00 +12°C° 0.1 mm 3 mps 750 mmHg 88%
    08:00 +13°C° 0.1 mm 3 mps 750 mmHg 86%
    09:00 +13°C° 0.1 mm 3 mps 750 mmHg 87%
    10:00 +13°C° 0.1 mm 3 mps 750 mmHg 88%
    11:00 +13°C° 0.1 mm 3 mps 750 mmHg 89%
    12:00 +14°C° 0 mm 3 mps 750 mmHg 80%
    13:00 +17°C° 0 mm 3 mps 750 mmHg 72%
    14:00 +18°C° 0 mm 3 mps 749 mmHg 63%
    15:00 +18°C° 0.1 mm 3 mps 749 mmHg 63%
    16:00 +18°C° 0.1 mm 3 mps 749 mmHg 64%
    17:00 +19°C° 0.1 mm 3 mps 749 mmHg 64%
    18:00 +17°C° 0.1 mm 3 mps 749 mmHg 72%
    19:00 +15°C° 0.1 mm 2 mps 748 mmHg 81%
    20:00 +14°C° 0.1 mm 1 mps 748 mmHg 89%
    21:00 +13°C° 0 mm 1 mps 749 mmHg 90%
    22:00 +12°C° 0 mm 1 mps 749 mmHg 91%
    23:00 +11°C° 0 mm 1 mps 749 mmHg 92%

    3 June, Wednesday

    Time Temperature Precipitation Wind Pressure Humidity
    00:00 +10°C° 0 mm 1 mps 749 mmHg 92%
    01:00 +9°C° 0 mm 0 mps 749 mmHg 92%
    02:00 +8°C° 0 mm 0 mps 749 mmHg 92%
    03:00 +9°C° 0 mm 0 mps 749 mmHg 90%
    04:00 +9°C° 0 mm 0 mps 749 mmHg 89%
    05:00 +10°C° 0 mm 0 mps 749 mmHg 88%
    06:00 +12°C° 0 mm 0 mps 749 mmHg 80%
    07:00 +14°C° 0 mm 0 mps 749 mmHg 72%
    08:00 +17°C° 0 mm 0 mps 749 mmHg 64%
    09:00 +18°C° 0 mm 0 mps 749 mmHg 58%
    10:00 +20°C° 0 mm 0 mps 749 mmHg 52%
    11:00 +21°C° 0 mm 0 mps 749 mmHg 46%
    12:00 +21°C° 0 mm 0 mps 749 mmHg 46%
    13:00 +21°C° 0 mm 0 mps 749 mmHg 46%
    14:00 +22°C° 0 mm 0 mps 748 mmHg 45%
    15:00 +23°C° 0 mm 1 mps 748 mmHg 49%
    16:00 +22°C° 0 mm 1 mps 748 mmHg 52%
    17:00 +22°C° 0 mm 1 mps 748 mmHg 55%
    18:00 +20°C° 0.1 mm 1 mps 748 mmHg 64%
    19:00 +19°C° 0.1 mm 1 mps 748 mmHg 73%
    20:00 +16°C° 0.1 mm 1 mps 748 mmHg 82%
    21:00 +15°C° 0 mm 1 mps 748 mmHg 85%
    22:00 +14°C° 0 mm 2 mps 748 mmHg 87%
    23:00 +13°C° 0 mm 2 mps 748 mmHg 90%
    Show more